When you browse on this site, cookies collect data to enhance your experience and personalize the content and advertising you see.
Visit our Privacy Policy to learn more. By continuing to use the site, you agree to this use of cookies and data.
  • In Netherlands
  • List of Countries
  • For 7 days
  • Water Temperature
  • Weather Map
  • Weather Widgets
  • user-avatar
    Login

    Hourly Weather Ayacimahi

    Today, 20 February, Thursday

    Time Temperature Precipitation Wind Pressure Humidity
    00:00 -5°C° 0 mm 2 mps 588 mmHg 45%
    01:00 -3°C° 0 mm 1 mps 588 mmHg 46%
    02:00 -3°C° 0 mm 1 mps 588 mmHg 48%
    03:00 -3°C° 0 mm 1 mps 587 mmHg 51%
    04:00 -3°C° 0 mm 1 mps 587 mmHg 51%
    05:00 -4°C° 0 mm 1 mps 587 mmHg 52%
    06:00 -4°C° 0 mm 1 mps 588 mmHg 52%
    07:00 -3°C° 0 mm 1 mps 588 mmHg 58%
    08:00 -3°C° 0 mm 0 mps 589 mmHg 64%
    09:00 -1°C° 0 mm 0 mps 590 mmHg 70%
    10:00 -1°C° 0 mm 0 mps 590 mmHg 74%
    11:00 -1°C° 0 mm 0 mps 590 mmHg 77%
    12:00 +1°C° 0 mm 1 mps 590 mmHg 80%
    13:00 0°C° 0 mm 1 mps 589 mmHg 82%
    14:00 0°C° 0 mm 1 mps 589 mmHg 84%
    15:00 0°C° 0 mm 1 mps 589 mmHg 86%
    16:00 -1°C° 0 mm 1 mps 588 mmHg 85%
    17:00 -2°C° 0 mm 1 mps 588 mmHg 85%
    18:00 -3°C° 0 mm 1 mps 588 mmHg 85%
    19:00 -3°C° 0 mm 1 mps 588 mmHg 81%
    20:00 -3°C° 0 mm 1 mps 588 mmHg 77%
    21:00 -3°C° 0 mm 1 mps 588 mmHg 73%
    22:00 -4°C° 0 mm 1 mps 588 mmHg 71%
    23:00 -6°C° 0 mm 2 mps 588 mmHg 69%

    Tomorrow, 21 February, Friday

    Time Temperature Precipitation Wind Pressure Humidity
    00:00 -7°C° 0 mm 2 mps 587 mmHg 67%
    01:00 -7°C° 0 mm 2 mps 587 mmHg 69%
    02:00 -7°C° 0 mm 2 mps 587 mmHg 70%
    03:00 -7°C° 0 mm 2 mps 587 mmHg 72%
    04:00 -7°C° 0 mm 2 mps 587 mmHg 73%
    05:00 -6°C° 0 mm 1 mps 588 mmHg 73%
    06:00 -4°C° 0 mm 1 mps 588 mmHg 74%
    07:00 -3°C° 0 mm 1 mps 589 mmHg 76%
    08:00 -2°C° 0 mm 1 mps 589 mmHg 77%
    09:00 -2°C° 0 mm 0 mps 590 mmHg 79%
    16:00 -1°C° 0 mm 1 mps 590 mmHg 89%
    17:00 -2°C° 0 mm 1 mps 589 mmHg 88%
    18:00 -3°C° 0 mm 1 mps 589 mmHg 88%
    19:00 -3°C° 0 mm 1 mps 589 mmHg 83%
    20:00 -6°C° 0 mm 2 mps 589 mmHg 78%
    21:00 -6°C° 0 mm 2 mps 589 mmHg 73%
    22:00 -6°C° 0 mm 2 mps 589 mmHg 71%
    23:00 -6°C° 0 mm 2 mps 590 mmHg 69%

    Day after tomorrow, 22 February, Saturday

    Time Temperature Precipitation Wind Pressure Humidity
    00:00 -6°C° 0 mm 2 mps 590 mmHg 67%
    01:00 -6°C° 0 mm 2 mps 590 mmHg 66%
    02:00 -6°C° 0 mm 2 mps 590 mmHg 65%
    03:00 -6°C° 0 mm 2 mps 590 mmHg 64%
    04:00 -6°C° 0 mm 2 mps 590 mmHg 63%
    05:00 -6°C° 0 mm 2 mps 590 mmHg 63%
    06:00 -3°C° 0 mm 1 mps 590 mmHg 63%
    07:00 -2°C° 0 mm 1 mps 591 mmHg 65%
    08:00 -1°C° 0 mm 1 mps 591 mmHg 68%
    09:00 0°C° 0 mm 1 mps 592 mmHg 71%
    10:00 0°C° 0 mm 1 mps 592 mmHg 74%
    11:00 +1°C° 0 mm 1 mps 592 mmHg 77%
    12:00 +1°C° 0 mm 1 mps 592 mmHg 80%
    13:00 +1°C° 0 mm 1 mps 592 mmHg 82%
    14:00 +1°C° 0 mm 1 mps 592 mmHg 84%
    15:00 +1°C° 0 mm 1 mps 592 mmHg 86%
    16:00 0°C° 0 mm 1 mps 591 mmHg 83%
    17:00 -1°C° 0 mm 1 mps 591 mmHg 80%
    18:00 -2°C° 0 mm 1 mps 591 mmHg 78%
    19:00 -2°C° 0 mm 1 mps 591 mmHg 75%
    20:00 -2°C° 0 mm 1 mps 591 mmHg 72%
    21:00 -3°C° 0 mm 1 mps 591 mmHg 69%
    22:00 -3°C° 0 mm 1 mps 590 mmHg 68%
    23:00 -4°C° 0 mm 1 mps 590 mmHg 67%

    23 February, Sunday

    Time Temperature Precipitation Wind Pressure Humidity
    00:00 -4°C° 0 mm 1 mps 590 mmHg 67%
    01:00 -4°C° 0 mm 1 mps 590 mmHg 65%
    02:00 -4°C° 0 mm 1 mps 589 mmHg 64%
    03:00 -4°C° 0 mm 1 mps 589 mmHg 63%
    04:00 -4°C° 0 mm 1 mps 589 mmHg 62%
    05:00 -4°C° 0 mm 1 mps 589 mmHg 62%
    06:00 -4°C° 0 mm 1 mps 589 mmHg 61%
    07:00 -3°C° 0 mm 1 mps 590 mmHg 63%
    08:00 -3°C° 0 mm 0 mps 591 mmHg 65%
    09:00 -2°C° 0 mm 0 mps 592 mmHg 67%
    10:00 0°C° 0 mm 1 mps 592 mmHg 71%
    11:00 0°C° 0 mm 1 mps 592 mmHg 75%
    12:00 +1°C° 0 mm 1 mps 592 mmHg 78%
    13:00 0°C° 0.1 mm 1 mps 591 mmHg 80%
    14:00 0°C° 0.1 mm 1 mps 591 mmHg 82%
    15:00 0°C° 0.1 mm 1 mps 591 mmHg 84%
    16:00 -1°C° 0 mm 1 mps 590 mmHg 86%
    17:00 -2°C° 0 mm 1 mps 590 mmHg 88%
    18:00 -3°C° 0 mm 1 mps 589 mmHg 91%
    19:00 -3°C° 0 mm 1 mps 589 mmHg 87%
    20:00 -6°C° 0 mm 2 mps 589 mmHg 83%
    21:00 -6°C° 0 mm 2 mps 589 mmHg 80%
    22:00 -6°C° 0 mm 2 mps 589 mmHg 78%
    23:00 -6°C° 0 mm 2 mps 589 mmHg 77%

    24 February, Monday

    Time Temperature Precipitation Wind Pressure Humidity
    00:00 -7°C° 0 mm 2 mps 588 mmHg 76%
    01:00 -7°C° 0 mm 2 mps 588 mmHg 76%
    02:00 -8°C° 0 mm 3 mps 587 mmHg 75%
    03:00 -8°C° 0 mm 3 mps 587 mmHg 75%
    04:00 -8°C° 0 mm 3 mps 587 mmHg 76%
    05:00 -8°C° 0 mm 3 mps 587 mmHg 77%
    06:00 -8°C° 0 mm 3 mps 586 mmHg 78%
    07:00 -6°C° 0 mm 2 mps 587 mmHg 78%
    08:00 -5°C° 0 mm 2 mps 587 mmHg 78%
    09:00 -4°C° 0 mm 2 mps 588 mmHg 77%
    10:00 -4°C° 0 mm 2 mps 587 mmHg 79%
    11:00 -3°C° 0 mm 2 mps 587 mmHg 80%
    12:00 -3°C° 0 mm 2 mps 587 mmHg 82%
    13:00 -3°C° 0 mm 2 mps 586 mmHg 82%
    14:00 -3°C° 0 mm 2 mps 585 mmHg 83%
    15:00 -3°C° 0 mm 2 mps 585 mmHg 84%
    16:00 -4°C° 0 mm 2 mps 584 mmHg 85%
    17:00 -5°C° 0 mm 2 mps 584 mmHg 86%
    18:00 -6°C° 0 mm 2 mps 583 mmHg 87%
    19:00 -6°C° 0 mm 2 mps 583 mmHg 85%
    20:00 -6°C° 0 mm 2 mps 582 mmHg 82%
    21:00 -7°C° 0 mm 3 mps 582 mmHg 80%
    22:00 -7°C° 0 mm 3 mps 581 mmHg 79%
    23:00 -7°C° 0 mm 3 mps 581 mmHg 78%

    25 February, Tuesday

    Time Temperature Precipitation Wind Pressure Humidity
    00:00 -7°C° 0 mm 3 mps 580 mmHg 77%
    01:00 -7°C° 0 mm 3 mps 580 mmHg 76%
    02:00 -7°C° 0 mm 3 mps 579 mmHg 76%
    03:00 -6°C° 0 mm 2 mps 578 mmHg 75%
    04:00 -6°C° 0 mm 2 mps 578 mmHg 74%
    05:00 -6°C° 0 mm 2 mps 578 mmHg 74%
    06:00 -6°C° 0 mm 2 mps 578 mmHg 73%
    07:00 -6°C° 0 mm 2 mps 579 mmHg 73%
    08:00 -3°C° 0 mm 1 mps 579 mmHg 72%
    09:00 -2°C° 0 mm 1 mps 580 mmHg 72%
    10:00 -2°C° 0.1 mm 1 mps 580 mmHg 77%
    11:00 -4°C° 0.1 mm 2 mps 580 mmHg 83%
    12:00 -4°C° 0.1 mm 2 mps 580 mmHg 89%
    13:00 -4°C° 0.7 mm 2 mps 580 mmHg 91%
    14:00 -4°C° 0.7 mm 2 mps 580 mmHg 93%
    15:00 -4°C° 0.7 mm 2 mps 581 mmHg 94%
    16:00 -5°C° 0.7 mm 2 mps 581 mmHg 95%
    17:00 -6°C° 0.7 mm 3 mps 582 mmHg 96%
    18:00 -7°C° 0.7 mm 3 mps 582 mmHg 97%
    19:00 -7°C° 0.2 mm 3 mps 583 mmHg 95%
    20:00 -8°C° 0.2 mm 3 mps 583 mmHg 94%
    21:00 -8°C° 0.2 mm 3 mps 584 mmHg 92%
    22:00 -9°C° 0 mm 3 mps 584 mmHg 90%
    23:00 -9°C° 0 mm 2 mps 584 mmHg 87%
    Show more